星链-3048 (STARLINK-3048 )

导读

STARLINK-3048是美国太空探索技术公司(SpaceX)星链(Starlink)卫星互联网项目的一员,于2021年9月14日由美国发射升空,属于星链星座组网卫星,旨在为全球提供高速低延迟互联网服务,是SpaceX大规模卫星互联网组网进程中的组成部分。

基本信息
目录编号:
49148
目录名称:
STARLINK-3048
国际标识:
2021-082U
轨道中心:
EARTH
卫星名称:
星链-3048
卫星全名:
星链-3048 (STARLINK-3048 )
卫星状态:
在轨 (已飞行1740 天)
发射日期:
2021-09-14 UTC
国别 :
美国 (US)
星等 :
--
轨道信息
数据来源 国际轨道数据
星历时间: 2026-06-20T03:04:53+0800
15小时前
查看轨道信息
半长轴: 6952.692km
偏心率: 0.000222
轨道倾角: 70.000°
近地点辐角 266.977°
升交点赤经 18.109°
平近点角 93.114°
近地点: 573.011km
远地点: 576.099km
周期: 96.159分钟
每日圈数: 14.975223
详细信息
固有亮度:
5
最大亮度:
2.5
卫星平台:
Starlink v1.5
覆盖范围:
全球
运营商:
太空探索技术公司
运营商所在国:
美国
制造商(研发单位):
太空探索技术公司
制造商所在国:
美国
使用方式:
暂无
卫星简介
星链(Starlink)计划是由太空探索技术公司(SpaceX)提出的一个巨型低轨卫星互联网星座项目,计划在2019年至2024年间在太空搭建由约1.2万颗卫星组成的“星链”网络,其中1584颗将部署在地球上空550千米处的近地轨道,并从2020年开始工作。该卫星仍在工作。
2D轨道图
3D轨道图
轨道高度分析图
轨道倾角分析图
轨道综合分析图
查看轨道综合分析图